FW0246 Weather Reports


time (UTC)temp
C
wind
direction
speed
KPH
gust
KPH
rain 1hr
cm
rain 24hr
cm
rain mn
cm
humidity
%
barometer
mb
20260507010003 8 51 0.0 1.6 0.00 0.10 0.00 94 1012.0
20260507004719 8 51 0.0 1.6 0.00 0.10 0.00 94 1011.9
20260507003603 8 0 0.0 0.0 0.00 0.10 0.00 94 1011.9
20260507002703 8 51 0.0 1.6 0.00 0.10 0.00 94 1011.9
20260507001803 8 51 0.0 1.6 0.00 0.15 0.00 93 1011.8
20260507000903 8 0 0.0 0.0 0.00 0.15 0.00 93 1011.8
20260507000003 8 51 0.0 1.6 0.00 0.15 0.00 93 1011.7
20260506235403 8 51 0.0 1.6 0.00 0.15 0.00 92 1011.7
20260506234719 8 51 0.0 3.2 0.00 0.15 0.00 92 1011.7
20260506233603 8 51 0.0 1.6 0.00 0.15 0.00 92 1011.7
20260506232703 8 0 0.0 0.0 0.00 0.15 0.00 92 1011.7
20260506231803 8 51 0.0 1.6 0.00 0.15 0.00 92 1011.7
20260506231116 8 51 0.0 1.6 0.00 0.15 0.00 92 1011.7
20260506230003 8 0 0.0 0.0 0.00 0.15 0.00 92 1011.8
20260506225619 8 0 0.0 0.0 0.00 0.15 0.00 92 1011.8
20260506224504 8 0 0.0 0.0 0.00 0.15 0.00 92 1011.7
20260506223603 8 0 0.0 0.0 0.00 0.15 0.00 91 1011.7
20260506222703 8 51 0.0 1.6 0.00 0.15 0.00 91 1011.7
20260506221803 8 51 0.0 1.6 0.00 0.15 0.00 92 1011.6
20260506220903 8 0 0.0 0.0 0.00 0.15 0.00 91 1011.5
20260506220003 8 51 0.0 1.6 0.00 0.20 0.00 91 1011.3
20260506215619 8 51 0.0 1.6 0.00 0.23 0.20 91 1011.2
20260506214503 8 51 0.0 1.6 0.00 0.23 0.20 90 1011.0
20260506213603 8 51 0.0 1.6 0.00 0.23 0.20 90 1010.9
20260506212703 8 51 0.0 1.6 0.00 0.23 0.20 90 1010.8
20260506211803 8 51 0.0 1.6 0.00 0.23 0.20 89 1010.7
20260506211116 8 51 0.0 4.8 0.00 0.25 0.20 89 1010.7
20260506210219 8 51 0.0 3.2 0.00 0.25 0.20 89 1010.7
20260506205618 8 51 0.0 1.6 0.00 0.25 0.20 89 1010.7
20260506204503 8 51 1.6 4.8 0.00 0.28 0.20 89 1010.7
20260506203817 8 56 1.6 6.4 0.00 0.30 0.20 89 1010.6
20260506202703 8 36 1.6 4.8 0.00 0.30 0.20 89 1010.5
20260506201803 8 35 1.6 4.8 0.00 0.30 0.20 90 1010.7
20260506200903 8 34 0.0 1.6 0.00 0.33 0.20 91 1010.7
20260506200219 9 0 0.0 0.0 0.00 0.33 0.20 90 1010.5
20260506195403 9 34 0.0 3.2 0.00 0.33 0.20 90 1010.5
20260506194503 9 34 0.0 3.2 0.00 0.33 0.20 89 1010.4
20260506193603 9 34 0.0 3.2 0.00 0.33 0.20 89 1010.2
20260506192704 9 34 0.0 1.6 0.00 0.33 0.20 88 1010.1
20260506192019 9 34 0.0 1.6 0.00 0.33 0.20 88 1009.9
20260506190903 9 33 1.6 4.8 0.00 0.36 0.20 87 1009.7
20260506190003 9 65 1.6 6.4 0.00 0.36 0.20 87 1009.6
20260506185403 9 86 1.6 6.4 0.00 0.36 0.20 87 1009.5
20260506184503 9 22 1.6 9.7 0.00 0.38 0.20 87 1009.3
20260506183604 9 49 1.6 9.7 0.00 0.38 0.20 86 1009.3
20260506182703 10 92 1.6 6.4 0.00 0.38 0.20 86 1009.1
20260506182019 10 68 3.2 11.3 0.00 0.38 0.20 86 1009.1
20260506180903 10 75 3.2 11.3 0.00 0.41 0.20 85 1008.8
20260506180004 10 64 3.2 8.0 0.00 0.41 0.20 85 1008.7
20260506175617 10 66 3.2 8.0 0.00 0.41 0.20 85 1008.8
20260506174503 10 52 1.6 4.8 0.00 0.41 0.20 84 1008.8
20260506173603 10 51 3.2 11.3 0.00 0.43 0.20 84 1008.8
20260506172920 10 65 3.2 6.4 0.00 0.43 0.20 84 1008.7
20260506171803 10 123 1.6 3.2 0.00 0.46 0.20 85 1008.8
20260506170903 10 163 1.6 8.0 0.00 0.48 0.20 84 1008.6
20260506170217 10 51 3.2 9.7 0.00 0.51 0.20 84 1008.6
20260506165403 11 77 3.2 9.7 0.00 0.51 0.20 84 1008.6
20260506164503 11 83 1.6 4.8 0.00 0.51 0.20 85 1008.6
20260506163603 11 97 1.6 6.4 0.00 0.51 0.20 85 1008.6
20260506162703 11 40 3.2 8.0 0.00 0.53 0.20 84 1008.6
20260506161804 11 358 4.8 12.9 0.00 0.53 0.20 83 1008.6
20260506160903 11 31 3.2 12.9 0.00 0.53 0.20 83 1008.5
20260506160003 11 25 1.6 8.0 0.00 0.53 0.20 85 1008.4
20260506155403 11 266 1.6 6.4 0.00 0.53 0.20 87 1008.4
20260506154504 11 62 3.2 12.9 0.00 0.53 0.20 87 1008.3
20260506153603 11 39 3.2 12.9 0.00 0.53 0.20 86 1008.4
20260506152919 11 4 1.6 11.3 0.00 0.53 0.20 86 1008.2
20260506151803 11 31 3.2 8.0 0.00 0.56 0.20 86 1008.2
20260506150903 11 44 3.2 16.1 0.00 0.56 0.20 86 1008.1
20260506150217 11 47 3.2 16.1 0.00 0.58 0.20 85 1008.0
20260506145403 11 50 1.6 8.0 0.00 0.58 0.20 86 1008.0
20260506144503 11 46 3.2 6.4 0.00 0.58 0.20 87 1008.1
20260506143603 11 39 3.2 12.9 0.00 0.61 0.20 86 1008.0
20260506142703 11 227 3.2 6.4 0.00 0.61 0.20 88 1008.0
20260506141803 11 240 1.6 6.4 0.00 0.61 0.20 88 1008.1
20260506140903 11 249 3.2 12.9 0.00 0.64 0.20 88 1008.1
20260506140004 11 258 3.2 14.5 0.00 0.69 0.20 88 1007.9
20260506135403 11 256 1.6 9.7 0.00 0.71 0.20 89 1008.0
20260506134504 11 257 3.2 8.0 0.00 0.71 0.20 89 1008.1
20260506133603 11 236 1.6 8.0 0.00 0.79 0.20 89 1008.0
20260506132703 11 234 3.2 12.9 0.00 0.81 0.20 88 1007.9
20260506132017 11 234 3.2 11.3 0.00 0.84 0.20 88 1007.8
20260506130904 11 238 1.6 6.4 0.00 0.86 0.20 89 1007.8
20260506130003 11 262 1.6 6.4 0.00 0.86 0.20 88 1007.8
20260506125403 11 243 3.2 8.0 0.00 0.89 0.20 88 1007.7
20260506124503 12 246 3.2 8.0 0.00 0.99 0.20 87 1007.6
20260506123603 12 242 1.6 8.0 0.00 1.09 0.20 88 1007.5
20260506122703 12 248 1.6 9.7 0.00 1.09 0.20 88 1007.5
20260506121803 12 274 1.6 6.4 0.00 1.09 0.20 88 1007.4
20260506120903 12 223 1.6 9.7 0.00 1.09 0.20 87 1007.3
20260506120003 12 99 1.6 6.4 0.00 1.09 0.20 88 1007.3
20260506115403 12 243 1.6 6.4 0.00 1.09 0.20 88 1007.2
20260506114503 12 263 1.6 9.7 0.00 1.09 0.20 89 1007.2
20260506113603 12 299 1.6 6.4 0.00 1.09 0.20 88 1007.2
20260506112703 11 220 1.6 6.4 0.00 1.09 0.20 88 1007.1
20260506111803 11 86 1.6 4.8 0.00 1.09 0.20 89 1007.2
20260506110903 11 80 0.0 3.2 0.00 1.09 0.20 90 1007.2
20260506110003 11 63 1.6 4.8 0.00 1.09 0.20 90 1007.0
20260506105403 11 37 3.2 6.4 0.00 1.09 0.20 89 1006.9
20260506104503 11 302 1.6 6.4 0.00 1.09 0.20 88 1007.0
20260506103603 11 287 1.6 9.7 0.00 1.09 0.20 88 1006.9
20260506102917 12 14 1.6 9.7 0.00 1.09 0.20 90 1006.9
20260506102016 11 57 3.2 14.5 0.00 1.09 0.20 91 1006.8
20260506100903 11 70 3.2 6.4 0.00 1.09 0.20 92 1006.7
20260506100003 11 331 1.6 6.4 0.00 1.09 0.20 92 1006.8
20260506095403 11 248 1.6 12.9 0.00 1.09 0.20 92 1006.8
20260506094503 11 235 3.2 8.0 0.00 1.09 0.20 92 1006.7
20260506093603 11 261 3.2 11.3 0.00 1.09 0.20 92 1006.6
20260506092703 11 277 1.6 8.0 0.00 1.09 0.20 92 1006.5
20260506091803 11 253 3.2 16.1 0.00 1.09 0.20 91 1006.4
20260506090903 11 217 3.2 11.3 0.00 1.09 0.20 91 1006.3
20260506090003 11 254 1.6 6.4 0.00 1.09 0.20 91 1006.1
20260506085403 12 274 3.2 11.3 0.00 1.09 0.20 93 1006.1
20260506084503 11 249 1.6 4.8 0.00 1.09 0.20 94 1006.0
20260506083603 11 308 1.6 4.8 0.00 1.09 0.20 94 1005.9
20260506082703 11 60 1.6 4.8 0.00 1.09 0.20 95 1005.9
20260506081803 11 242 1.6 8.0 0.00 1.09 0.20 95 1005.9
20260506080903 11 234 1.6 8.0 0.00 1.09 0.20 95 1005.8
20260506072703 11 249 1.6 6.4 0.00 1.09 0.20 96 1005.6
20260506071804 11 241 1.6 6.4 0.03 1.09 0.20 97 1005.6
20260506070903 11 238 3.2 9.7 0.03 1.09 0.20 96 1005.6
20260506062019 10 75 1.6 4.8 0.00 1.07 0.18 97 1005.3
20260506060903 10 270 1.6 4.8 0.00 1.07 0.18 96 1005.2
20260506050903 11 214 0.0 4.8 0.00 1.07 0.18 97 1005.0
20260506044503 11 0 0.0 0.0 0.00 1.07 0.18 97 1004.9
20260506043603 11 266 1.6 4.8 0.00 1.07 0.18 97 1004.9
20260506042703 11 269 3.2 6.4 0.03 1.07 0.18 97 1004.9
20260506042018 11 272 3.2 11.3 0.03 1.07 0.18 97 1005.0
20260506040003 11 205 0.0 1.6 0.03 1.07 0.18 98 1005.0
20260506035616 11 164 0.0 4.8 0.03 1.07 0.18 98 1004.9
20260506034717 11 300 0.0 3.2 0.03 1.07 0.18 98 1005.0
20260506033603 11 0 0.0 1.6 0.03 1.07 0.18 98 1005.1
20260506032703 11 0 0.0 0.0 0.00 1.04 0.15 98 1005.1
20260506031803 11 282 0.0 4.8 0.00 1.04 0.15 98 1005.1
20260506030903 11 205 0.0 3.2 0.00 1.04 0.15 98 1005.0
20260506025403 11 204 0.0 4.8 0.00 1.04 0.15 98 1005.2
20260506024503 11 319 0.0 4.8 0.00 1.04 0.15 98 1005.1
20260506023603 11 312 0.0 4.8 0.00 1.04 0.15 98 1005.2
20260506021803 11 202 0.0 3.2 0.05 1.04 0.15 98 1005.2
20260506020904 11 210 0.0 1.6 0.05 1.04 0.15 98 1005.2
20260506020003 11 201 0.0 6.4 0.05 1.04 0.15 98 1005.2
20260506015403 11 190 0.0 3.2 0.05 1.04 0.15 98 1005.3
20260506014503 12 159 0.0 1.6 0.05 1.04 0.15 98 1005.4